Jaipur, India

11:24 AM IST on October 01, 2016 (GMT +0530)
Jaipur

Weather History for VIJP - May, 2012

Change the Weather History Date:

Wednesday, May 23, 2012

  Actual Average Record
Temperature  
Mean Temperature 95 °F -  
Max Temperature 108 °F - - ()
Min Temperature 82 °F - - ()
Cooling Degree Days 30    
Growing Degree Days 45 (Base 50)    
Moisture  
Dew Point 50 °F    
Average Humidity 21    
Maximum Humidity 30    
Minimum Humidity 6    
Precipitation  
Precipitation 0.00 in - - ()
Sea Level Pressure  
Sea Level Pressure 29.65 in    
Wind  
Wind Speed 4 mph ()    
Max Wind Speed 13 mph    
Max Gust Speed -    
Visibility 2.2 miles    
Events      
T = Trace of Precipitation, MM = Missing Value Source: Averaged Metar Reports

Daily Weather History Graph

Daily Weather History Graph

Search for Another Location

Airport or City:

Trip Planner

Search our weather history database for the weather conditions in past years. The results will help you decide how hot, cold, wet, or windy it might be!

Date:

Astronomy

May. 23, 2012 Rise Set
Actual Time 5:35 AM IST 7:11 PM IST
Civil Twilight 5:09 AM IST 7:37 PM IST
Nautical Twilight 4:39 AM IST 8:08 PM IST
Astronomical Twilight 4:07 AM IST 8:40 PM IST
Moon 7:15 AM IST (5/23) 9:13 PM IST (5/23)
Length of Visible Light 14h 27m
Length of Day
13h 36m
Waxing Crescent, 5% of the Moon is Illuminated
May 23
Waxing Crescent
May 29
First Quarter
Jun 4
Full
Jun 11
Last Quarter
Jun 19
New

Hourly Weather History & Observations

Time (IST) Temp. Heat Index Dew Point Humidity Pressure Visibility Wind Dir Wind Speed Gust Speed Precip Events Conditions
12:00 AM 87.8 °F - 48.2 °F 25% 29.68 in 2.2 mi Calm Calm - N/A   Haze
1:00 AM 89.6 °F - 50.0 °F 26% 29.68 in 2.2 mi Calm Calm - N/A   Haze
2:00 AM 86.0 °F - 46.4 °F 25% 29.65 in 2.2 mi West 8.1 mph - N/A   Haze
2:30 AM 87 °F - 46 °F 15% 29.57 in 1 mi 2.3 mph - -   Haze
2:30 AM 87.8 °F - 44.6 °F 22% 29.65 in 2.2 mi Variable 2.3 mph - N/A   Haze
3:00 AM 89.6 °F - 46.4 °F 22% 29.65 in 2.2 mi Variable 4.6 mph - N/A   Haze
4:00 AM 89.6 °F - 44.6 °F 21% 29.65 in 2.2 mi Variable 6.9 mph - N/A   Haze
5:00 AM 86.0 °F - 46.4 °F 25% 29.68 in 2.2 mi Variable 2.3 mph - N/A   Haze
5:30 AM 85 °F - 45 °F 16% 29.59 in 1 mi Calm Calm - -   Haze
5:30 AM 84.2 °F - 46.4 °F 27% 29.68 in 2.2 mi Variable 2.3 mph - N/A   Haze
6:00 AM 82.4 °F - 46.4 °F 28% 29.68 in 2.2 mi West 6.9 mph - N/A   Haze
7:00 AM 86.0 °F - 48.2 °F 27% 29.71 in 2.2 mi Variable 1.2 mph - N/A   Haze
7:30 AM 87.8 °F - 48.2 °F 25% 29.71 in 2.2 mi WNW 5.8 mph - N/A   Haze
8:00 AM 89.6 °F - 48.2 °F 24% 29.71 in 2.2 mi Variable 2.3 mph - N/A   Haze
8:30 AM 93 °F - 49 °F 14% 29.62 in 1 mi 3.5 mph - -   Haze
8:30 AM 93.2 °F - 50.0 °F 23% 29.71 in 2.2 mi Variable 1.2 mph - N/A   Haze
9:00 AM 95.0 °F - 50.0 °F 22% 29.74 in 2.2 mi WNW 6.9 mph - N/A   Haze
9:30 AM 95.0 °F - 50.0 °F 22% 29.74 in 2.2 mi NNW 5.8 mph - N/A   Haze
10:00 AM 98.6 °F - 48.2 °F 18% 29.74 in 2.2 mi Variable 2.3 mph - N/A   Haze
10:30 AM 100.4 °F - 48.2 °F 17% 29.74 in 2.2 mi SW 6.9 mph - N/A   Haze
11:00 AM 100.4 °F - 48.2 °F 17% 29.71 in 2.2 mi West 6.9 mph - N/A   Haze
12:00 PM 104.0 °F 102.9 °F 55.4 °F 20% 29.71 in 2.5 mi Variable 5.8 mph - N/A   Haze
1:00 PM 104.0 °F 102.9 °F 55.4 °F 20% 29.68 in 2.5 mi Variable 9.2 mph - N/A   Haze
2:00 PM 105.8 °F 104.9 °F 55.4 °F 19% 29.65 in 2.5 mi Variable 11.5 mph - N/A   Haze
2:30 PM 107 °F - 45 °F 6% 29.54 in 2 mi West 10.4 mph - -   Haze
3:00 PM 105.8 °F 104.9 °F 55.4 °F 19% 29.65 in 2.5 mi West 12.7 mph - N/A   Haze
4:00 PM 105.8 °F 104.9 °F 55.4 °F 19% 29.62 in 2.5 mi Variable 4.6 mph - N/A   Haze
5:30 PM 105 °F - 43 °F 6% 29.50 in 2 mi NW 6.9 mph - -   Haze
6:00 PM 104.0 °F 102.9 °F 55.4 °F 20% 29.62 in 2.5 mi Variable 5.8 mph - N/A   Haze
7:00 PM 102.2 °F 100.4 °F 53.6 °F 20% 29.62 in 2.5 mi Variable 4.6 mph - N/A   Haze
8:00 PM 100.4 °F 98.4 °F 53.6 °F 21% 29.62 in 2.5 mi WNW 5.8 mph - N/A   Haze
8:30 PM 99 °F - 53 °F 13% 29.52 in 2 mi NW 2.3 mph - -   Haze
9:00 PM 98.6 °F 97.2 °F 55.4 °F 24% 29.65 in 2.5 mi Calm Calm - N/A   Haze
10:00 PM 96.8 °F 95.1 °F 55.4 °F 25% 29.65 in 2.5 mi NNW 4.6 mph - N/A   Haze
11:00 PM 93.2 °F 91.9 °F 57.2 °F 30% 29.65 in 2.5 mi Calm Calm - N/A   Haze
11:30 PM 93 °F - 54 °F 18% 29.55 in 2 mi Calm Calm - -   Haze